Вернуться в каталог

STARLINK-38031

АктивенСвязьVLEO
NORAD 69827·PAYLOAD·🇺🇸 United States

Запущен Jul 5, 2026 с Cape Canaveral Space Force Station

Loading…

Ближайшие Пролёты (ближайшие 24 часа)

TLE

СвежийSource: CelesTrak SupGP

Эпоха: Sep 14, 2026, 21:30 UTC

1 69827C 26154J   26257.89631944 -.00002421  00000+0 -71546-4 0  2570
2 69827  53.1601 358.1159 0001214  72.2245 345.5220 15.34384231    18

Отслеживайте STARLINK-38031 в реальном времени с AllMySat

Download on the App Store